Location: Moscow
(55.7500°N, 37.5830°E)
Time: 16:04:42
(UTC+03:00)

A-11 Canister half - Pass Details

Date: 09 December 2021
Orbit: 1516 x 1684 km, 47.2° (Epoch: 19 January)

Event Time Altitude Azimuth Distance (km) Brightness Sun altitude
Rises 10:29:58 0° 272° (W) 4,822 11.3 7.9°
Reaches altitude 10° 10:33:11 10° 267° (W) 3,858 10.9 8.1°
Maximum altitude 10:42:24 46° 198° (SSW) 2,120 10.4 8.6°
Drops below altitude 10° 10:51:49 10° 130° (SE) 3,940 12.4 9.1°
Sets 10:55:09 0° 125° (SE) 4,932 12.7 9.3°
